Gainesville, GA

7:44 AM EST on November 18, 2017 (GMT -0500)
Gilmer Memorial

Weather History for KGVL - August, 2014

Change the Weather History Date:

Tuesday, August 12, 2014

  Actual Average Record
Temperature  
Mean Temperature 80 °F 79 °F  
Max Temperature 88 °F 88 °F 101 °F (1957)
Min Temperature 72 °F 70 °F 60 °F (2012)
Cooling Degree Days 15 14  
Month to date cooling degree days 138 168  
Year to date cooling degree days 1096 1090  
Since 1 June cooling degree days 867 915  
Growing Degree Days 30 (Base 50)    
Moisture  
Dew Point 69 °F    
Average Humidity 68    
Maximum Humidity 93    
Minimum Humidity 43    
Precipitation  
Precipitation 0.03 in 0.16 in 2.06 in (2004)
Month to date precipitation 2.09 1.98  
Year to date precipitation 27.29 33.80  
Sea Level Pressure  
Sea Level Pressure 29.91 in    
Wind  
Wind Speed 8 mph (West)    
Max Wind Speed 16 mph    
Max Gust Speed 22 mph    
Visibility 8 miles    
Events Rain    
T = Trace of Precipitation, MM = Missing Value Source: NWS Daily Summary

Daily Weather History Graph

Daily Weather History Graph

Search for Another Location

Airport or City:

Trip Planner

Search our weather history database for the weather conditions in past years. The results will help you decide how hot, cold, wet, or windy it might be!

Date:

Astronomy

Aug. 12, 2014 Rise Set
Actual Time 6:54 AM EDT 8:25 PM EDT
Civil Twilight 6:27 AM EDT 8:52 PM EDT
Nautical Twilight 5:55 AM EDT 9:24 PM EDT
Astronomical Twilight 5:21 AM EDT 9:58 PM EDT
Moon 9:42 PM EDT (8/12) 9:02 AM EDT (8/12)
Length of Visible Light 14h 24m
Length of Day
13h 31m
Waning Gibbous, 95% of the Moon is Illuminated
Aug 12
Waning Gibbous
Aug 17
Last Quarter
Aug 25
New
Sep 2
First Quarter
Sep 8
Full

Hourly Weather History & Observations

Time (EDT) Temp. Heat Index Dew Point Humidity Pressure Visibility Wind Dir Wind Speed Gust Speed Precip Events Conditions
12:53 AM 75.0 °F - 71.1 °F 87% 29.95 in 9.0 mi SW 5.8 mph - N/A   Partly Cloudy
1:53 AM 73.9 °F - 72.0 °F 93% 29.93 in 7.0 mi West 3.5 mph - N/A   Clear
2:53 AM 73.0 °F - 71.1 °F 93% 29.92 in 6.0 mi WSW 4.6 mph - N/A   Clear
3:53 AM 73.0 °F - 71.1 °F 93% 29.91 in 6.0 mi West 3.5 mph - N/A   Scattered Clouds
5:53 AM 72.0 °F - 70.0 °F 93% 29.89 in 8.0 mi West 3.5 mph - N/A   Clear
6:13 AM 73.0 °F - 71.1 °F 93% 29.93 in 8.0 mi West 8.1 mph - N/A   Mostly Cloudy
6:21 AM 73.0 °F - 71.1 °F 93% 29.93 in 9.0 mi West 8.1 mph - N/A   Mostly Cloudy
6:33 AM 73.0 °F - 71.1 °F 93% 29.94 in 9.0 mi West 8.1 mph - N/A   Overcast
6:44 AM 73.0 °F - 71.1 °F 93% 29.94 in 8.0 mi WSW 8.1 mph - N/A   Overcast
6:53 AM 73.0 °F - 71.1 °F 93% 29.89 in 8.0 mi WSW 8.1 mph - N/A   Overcast
7:38 AM 73.0 °F - 71.1 °F 93% 29.95 in 5.0 mi West 8.1 mph - N/A   Overcast
8:53 AM 73.9 °F - 71.1 °F 91% 29.91 in 5.0 mi WNW 9.2 mph - N/A   Overcast
9:21 AM 75.0 °F - 72.0 °F 90% 29.95 in 7.0 mi WSW 9.2 mph - N/A   Mostly Cloudy
9:33 AM 75.0 °F - 72.0 °F 90% 29.95 in 7.0 mi WSW 6.9 mph - N/A   Mostly Cloudy
9:53 AM 77.0 °F - 71.1 °F 82% 29.91 in 9.0 mi West 9.2 mph - N/A   Mostly Cloudy
10:36 AM 79.0 °F - 71.1 °F 77% 29.96 in 10.0 mi West 8.1 mph - N/A   Mostly Cloudy
10:53 AM 80.1 °F 83.2 °F 70.0 °F 71% 29.91 in 10.0 mi West 8.1 mph - N/A   Scattered Clouds
11:12 AM 80.1 °F 83.6 °F 71.1 °F 74% 29.96 in 10.0 mi West 12.7 mph - N/A   Mostly Cloudy
11:44 AM 81.0 °F 84.1 °F 69.1 °F 67% 29.96 in 10.0 mi WNW 6.9 mph - N/A   Partly Cloudy
11:53 AM 81.0 °F 84.4 °F 70.0 °F 69% 29.91 in 10.0 mi West 8.1 mph - N/A   Partly Cloudy
1:53 PM 84.0 °F 88.4 °F 70.0 °F 63% 29.88 in 10.0 mi SW 11.5 mph 18.4 mph N/A   Mostly Cloudy
2:53 PM 84.0 °F 88.4 °F 70.0 °F 63% 29.87 in 10.0 mi West 12.7 mph - N/A   Partly Cloudy
3:53 PM 87.1 °F 91.3 °F 69.1 °F 55% 29.84 in 10.0 mi West 13.8 mph - N/A   Clear
4:53 PM 88.0 °F 89.6 °F 64.9 °F 46% 29.82 in 10.0 mi West 12.7 mph - N/A   Partly Cloudy
5:53 PM 87.1 °F 87.8 °F 63.0 °F 44% 29.82 in 10.0 mi West 11.5 mph - N/A   Partly Cloudy
6:53 PM 86.0 °F 87.6 °F 64.9 °F 49% 29.83 in 10.0 mi West 8.1 mph - N/A   Clear
7:53 PM 82.0 °F 84.5 °F 66.9 °F 60% 29.85 in 10.0 mi West 8.1 mph - N/A   Partly Cloudy
8:53 PM 79.0 °F - 68.0 °F 69% 29.87 in 6.0 mi WNW 15.0 mph - 0.02 in Rain Light Rain
9:53 PM 75.9 °F - 69.1 °F 79% 29.89 in 8.0 mi North 9.2 mph - 0.01 in Rain Light Rain
10:53 PM 75.0 °F - 64.9 °F 71% 29.90 in 10.0 mi NW 4.6 mph - 0.00 in   Mostly Cloudy
11:53 PM 73.9 °F - 64.0 °F 71% 29.90 in 10.0 mi NW 4.6 mph - N/A   Partly Cloudy